EW9827 Weather Reports


Display with metric or nautical units.
time (UTC)temp
F
wind
direction
speed
MPH
gust
MPH
rain 1hr
in
rain 24hr
in
rain mn
in
humidity
%
barometer
mb
20260504234526 63 94 2.0 8.0 0.00 0.00 0.00 53 1007.4
20260504233019 65 94 1.0 16.0 0.00 0.00 0.00 51 1007.4
20260504231518 66 94 2.0 12.0 0.00 0.00 0.00 49 1007.5
20260504230046 67 94 5.0 21.0 0.00 0.00 0.00 47 1007.3
20260504224547 66 94 1.0 16.0 0.00 0.00 0.00 48 1007.3
20260504223042 66 94 2.0 9.0 0.00 0.00 0.00 48 1007.3
20260504221542 66 94 2.0 16.0 0.00 0.00 0.00 46 1007.5
20260504220047 65 94 3.0 13.0 0.00 0.00 0.00 46 1007.4
20260504214538 66 94 3.0 11.0 0.00 0.00 0.00 46 1007.3
20260504213045 67 94 3.0 13.0 0.00 0.00 0.00 44 1007.5
20260504211538 67 94 4.0 14.0 0.00 0.00 0.00 44 1007.6
20260504210025 67 93 3.0 12.0 0.00 0.00 0.00 42 1007.3
20260504204535 68 94 2.0 14.0 0.00 0.00 0.00 42 1007.4
20260504203051 68 93 5.0 14.0 0.00 0.00 0.00 40 1007.6
20260504201548 69 94 1.0 9.0 0.00 0.00 0.00 41 1007.6
20260504200016 69 93 2.0 17.0 0.00 0.00 0.00 37 1008.0
20260504194514 68 94 2.0 17.0 0.00 0.00 0.00 40 1008.4
20260504193008 68 93 3.0 11.0 0.00 0.00 0.00 35 1008.5
20260504191505 68 93 3.0 15.0 0.00 0.00 0.00 38 1008.5
20260504190002 68 94 3.0 10.0 0.00 0.00 0.00 40 1008.8
20260504184559 67 93 2.0 15.0 0.00 0.00 0.00 40 1009.2
20260504183103 67 94 4.0 18.0 0.00 0.00 0.00 39 1009.3
20260504181524 66 93 4.0 16.0 0.00 0.00 0.00 41 1009.4
20260504180022 66 93 5.0 13.0 0.00 0.00 0.00 43 1009.4
20260504174520 66 93 2.0 13.0 0.00 0.00 0.00 43 1009.8
20260504173016 65 93 5.0 16.0 0.00 0.00 0.00 43 1009.8
20260504171513 65 93 4.0 13.0 0.00 0.00 0.00 47 1010.2
20260504160104 62 93 4.0 13.0 0.00 0.00 0.00 50 1011.0
20260504081522 39 93 0.0 0.0 0.00 0.00 0.00 72 1013.6
20260504050024 44 93 1.0 8.0 0.00 0.00 0.00 60 1014.7
20260504044533 44 93 0.0 7.0 0.00 0.00 0.00 60 1014.8
20260504043028 44 93 0.0 7.0 0.00 0.00 0.00 59 1014.8
20260504041518 44 93 1.0 11.0 0.00 0.00 0.00 60 1014.8
20260504041516 44 93 1.0 11.0 0.00 0.00 0.00 59 1014.8
20260504040020 45 93 1.0 6.0 0.00 0.00 0.00 58 1014.9
20260504034514 45 93 1.0 5.0 0.00 0.00 0.00 58 1014.9
20260504033012 44 93 1.0 8.0 0.00 0.00 0.00 59 1015.0
20260504031514 45 93 1.0 8.0 0.00 0.00 0.00 58 1015.0
20260504030009 45 93 2.0 6.0 0.00 0.00 0.00 58 1014.9
20260504024510 45 93 1.0 7.0 0.00 0.00 0.00 58 1015.1
20260504023005 44 93 0.0 5.0 0.00 0.00 0.00 58 1015.1
20260504021504 45 93 0.0 6.0 0.00 0.00 0.00 57 1015.1
20260504020003 44 93 1.0 7.0 0.00 0.00 0.00 57 1015.1
20260504014501 45 93 0.0 4.0 0.00 0.00 0.00 57 1015.1
20260504013106 45 93 0.0 4.0 0.00 0.00 0.00 55 1014.9
20260504011555 46 93 0.0 2.0 0.00 0.00 0.00 55 1014.8
20260504010053 47 93 0.0 2.0 0.00 0.00 0.00 53 1014.8
20260504004550 48 93 0.0 6.0 0.00 0.00 0.00 51 1014.7
20260504003047 48 93 0.0 6.0 0.00 0.00 0.00 50 1014.6
20260504001542 49 93 1.0 7.0 0.00 0.00 0.00 49 1014.6
20260504000046 49 93 1.0 9.0 0.00 0.00 0.00 48 1014.6